GUS1 -KBHM

Flight info

Callsign GUS1
Flight time N/A
Altitude VFR
Route PATTERN
Aircraft SR22/L-DOV/C

Departure

Time N/A
Airport -

Arrival

Time 2026-05-03 20:53
Airport Birmingham-Shuttlesworth International Airport (KBHM)
Time Latitude Longitude Altitude Speed Heading
2026-05-03 20:43 33.56985 -86.73976 1045 ft 102 kts 98°
2026-05-03 20:43 33.56558 -86.73225 1260 ft 117 kts 137°
2026-05-03 20:43 33.55895 -86.72638 1535 ft 122 kts 148°
2026-05-03 20:44 33.55082 -86.72568 1712 ft 124 kts 220°
2026-05-03 20:44 33.54524 -86.73339 1856 ft 132 kts 240°
2026-05-03 20:44 33.54202 -86.74313 2191 ft 122 kts 269°
2026-05-03 20:44 33.53801 -86.75273 2295 ft 140 kts 236°
2026-05-03 20:45 33.53194 -86.76151 2624 ft 134 kts 233°
2026-05-03 20:45 33.52592 -86.77071 2520 ft 134 kts 236°
2026-05-03 20:45 33.52060 -86.77906 2385 ft 121 kts 237°
2026-05-03 20:45 33.51678 -86.78735 2239 ft 104 kts 257°
2026-05-03 20:46 33.51606 -86.79547 2020 ft 92 kts 310°
2026-05-03 20:46 33.52095 -86.79988 1748 ft 95 kts 329°
2026-05-03 20:46 33.52684 -86.80330 1492 ft 96 kts 334°
2026-05-03 20:46 33.53190 -86.80306 1480 ft 77 kts 20°
2026-05-03 20:47 33.53599 -86.79878 1397 ft 79 kts 47°
2026-05-03 20:47 33.54032 -86.79426 1268 ft 84 kts 18°
2026-05-03 20:47 33.54434 -86.78824 1136 ft 102 kts 47°
2026-05-03 20:47 33.54935 -86.78106 941 ft 110 kts 45°
2026-05-03 20:48 33.55367 -86.77343 721 ft 104 kts 52°
2026-05-03 20:48 33.55730 -86.76709 611 ft 77 kts 51°
2026-05-03 20:48 33.56081 -86.76097 677 ft 103 kts 50°
2026-05-03 20:48 33.56513 -86.75354 814 ft 118 kts 51°
2026-05-03 20:49 33.57025 -86.74421 830 ft 138 kts 49°
2026-05-03 20:49 33.57554 -86.73521 1410 ft 106 kts 61°
2026-05-03 20:49 33.57238 -86.72761 1560 ft 130 kts 140°
2026-05-03 20:49 33.56477 -86.72052 1605 ft 146 kts 171°
2026-05-03 20:50 33.55662 -86.72792 1417 ft 162 kts 244°
2026-05-03 20:50 33.55098 -86.73941 1376 ft 170 kts 245°
2026-05-03 20:50 33.54557 -86.75133 1275 ft 153 kts 244°
2026-05-03 20:50 33.54122 -86.76141 1422 ft 123 kts 248°
2026-05-03 20:51 33.53722 -86.77028 1316 ft 118 kts 242°
2026-05-03 20:51 33.53312 -86.77908 1187 ft 113 kts 248°
2026-05-03 20:51 33.53001 -86.78754 1051 ft 113 kts 255°
2026-05-03 20:51 33.52829 -86.79561 1138 ft 89 kts 281°
2026-05-03 20:52 33.53238 -86.80010 1018 ft 94 kts 348°
2026-05-03 20:52 33.53901 -86.79900 987 ft 96 kts 34°
2026-05-03 20:52 33.54239 -86.79252 770 ft 89 kts 61°
2026-05-03 20:52 33.54605 -86.78594 708 ft 106 kts 50°
2026-05-03 20:53 33.55038 -86.77867 726 ft 129 kts 48°
2026-05-03 20:53 33.55595 -86.76947 622 ft 127 kts 50°
2026-05-03 20:53 33.55963 -86.76293 619 ft 84 kts 56°
2026-05-03 20:53 33.56073 -86.76085 618 ft 9 kts 71°
2026-05-03 20:54 33.56141 -86.75766 611 ft 49 kts 66°